Find Starlink 30374

NORAD ID: 57809 Int'l Des: 2023-138 Owner: SPXS Country: US Constellation: starlink operational
LEOCIRCULAR

Live-Position

3D-Globus wird geladen...

Über Starlink 30374

Beschreibung wird geladen...

Nächste Überflüge

Passes for default location (London). Set your location on the main map for personalized predictions.

Höhenverlauf

Loading altitude history...

Zweizeiliger Elementsatz

1 57809U 23138B 26125.85113059 .00001179 00000-0 52344-4 0 9994
2 57809 43.0003 271.0904 0000288 151.2769 208.8099 15.27583182147485
Epoch: 5. Mai 2026 • Age: 18 hours

Aktueller Status

Höhe 482.1 km
Geschwindigkeit 7.63 km/s
Subsatellitenpunkt 5.75°N, 0.32°W
Startdatum 9. Sept. 2023
Alter 2.6 years
Typ internet

Technische Details

Klassifizierung Payload
Masse 730.00 kg
Trockenmasse 700.00 kg
Gesamtmasse 730.00 kg
Länge 0.30 m
Durchmesser 4.10 m
Spannweite 29.00 m
Form Box + pan
Hersteller SPXS
Bus-Typ Starlink V2M
Phasenstatus In Orbit
Besitzer/Staat SPXS/US

Most Searched